Location: Gälforsberget
(66.6500°N, 22.4167°E)
Time: 08:01:11
(UTC+00:00)

ATLAS 3B R/B - Pass Details

Date: 11 April 2026
Orbit: 937 x 1257 km, 63.8° (Epoch: 9 May)

Event Time Altitude Azimuth Distance (km) Brightness Sun altitude
Rises 22:09:55 0° 275° (W) 4,198 5.9 -14.7°
Reaches altitude 10° 22:12:42 10° 273° (W) 3,242 5.3 -14.7°
Maximum altitude 22:20:33 71° 192° (SSW) 1,320 3.0 -14.7°
Drops below altitude 10° 22:28:14 10° 111° (ESE) 3,174 5.0 -14.8°
Sets 22:30:56 0° 109° (ESE) 4,105 5.6 -14.8°
